Wind_Speed
20 20 20 20 20 20 17 16 16 17 17 18 19 21 22 22 19 15 13 13 13 14 15 16 16 17 18 17 16 16 15 15 16 18 19 19 18 17 16 15 14 13 11 10 9 10 12 13 13 12 11 11 10 10 9 8 7 6 5 5 5 5 5 4 4 3 3 3 3 3 3 3 3 4 4 4 4 5 5 5 6 6 6 7 7
20 20 19 19 20 19 16 16 15 16 16 17 19 20 22 22 19 14 13 12 13 14 15 16 16 17 18 17 17 16 16 16 17 18 19 20 19 18 17 16 14 13 11 10 9 10 11 12 12 12 11 10 10 10 9 9 8 7 6 5 5 5 4 4 3 3 3 3 3 3 3 3 3 3 3 4 4 5 5 5 5 6 6 7 7
19 18 18 19 19 17 15 15 14 15 16 17 18 20 21 21 19 14 12 11 12 13 14 15 16 17 17 17 17 16 16 16 17 18 19 20 19 18 17 16 15 13 12 10 9 10 10 11 11 11 11 10 10 9 9 9 8 7 7 6 5 4 4 3 3 3 3 4 3 3 3 3 3 3 3 4 4 4 5 5 5 6 7 7 8
18 17 17 18 17 15 14 14 14 14 15 16 17 19 20 21 19 14 11 11 11 12 14 15 15 16 17 17 17 16 16 16 17 18 19 20 19 18 17 16 15 14 12 10 9 9 10 10 11 11 10 10 9 9 9 9 9 8 8 7 6 5 4 4 4 4 4 4 4 4 4 4 4 4 4 4 4 5 5 5 6 6 7 8 8
18 17 17 17 15 14 14 13 13 14 15 16 17 18 19 20 18 13 11 10 10 12 13 14 15 15 17 17 17 17 16 17 18 19 20 20 19 18 17 16 15 14 12 10 9 9 9 9 10 11 10 10 9 9 9 9 9 8 8 7 5 5 4 4 4 4 4 4 4 5 5 5 5 4 5 5 5 6 6 6 6 7 8 8 9
19 18 18 16 15 14 13 13 13 14 14 16 17 18 19 20 17 12 10 10 10 11 12 13 14 15 16 17 17 17 17 17 18 19 20 20 19 18 17 17 16 14 11 10 9 8 8 9 10 11 10 10 9 9 9 8 8 8 7 6 5 5 4 4 4 3 3 4 4 5 5 5 5 5 6 6 6 7 7 7 7 8 9 9 10
19 19 18 17 15 13 13 13 13 14 14 16 17 18 19 19 17 12 10 9 9 10 12 13 14 14 16 17 17 17 17 17 18 19 20 20 19 18 17 16 15 13 11 10 9 8 8 9 10 10 10 10 9 9 8 8 8 7 7 6 6 5 5 4 4 4 4 4 4 4 5 5 5 5 6 6 7 7 7 8 8 9 9 10 10
20 19 18 17 15 13 14 13 13 14 14 16 17 18 18 19 15 11 10 9 9 10 11 13 13 14 16 17 17 17 17 18 19 20 20 19 18 17 16 16 15 13 11 10 9 9 9 9 10 10 10 9 9 8 8 8 8 7 7 6 6 6 5 5 4 4 4 4 4 4 4 5 5 5 6 6 7 7 8 8 9 9 10 10 11
20 19 19 17 15 13 14 13 14 14 15 16 16 17 18 18 14 10 9 9 9 10 11 12 13 14 15 16 17 17 18 18 19 19 19 18 17 16 15 15 14 13 11 10 10 9 9 10 10 10 10 9 9 8 7 7 7 7 7 7 6 6 5 5 5 4 4 4 4 4 4 4 5 5 6 7 7 8 8 9 9 10 10 10 10
20 19 19 17 15 14 13 13 14 14 15 16 17 17 17 16 12 10 9 9 9 10 11 12 13 14 15 16 16 17 18 19 19 19 18 17 16 15 14 14 13 12 11 10 10 9 10 10 10 10 9 9 9 8 7 7 7 7 7 7 6 6 6 5 5 4 4 4 4 5 4 4 5 5 6 7 7 8 8 9 9 10 10 10 10
20 19 18 17 15 14 14 14 14 15 16 16 17 17 17 15 11 10 10 9 9 10 11 13 13 13 14 15 16 16 18 19 19 18 17 16 15 14 13 13 12 11 10 10 9 9 9 10 10 9 9 9 8 8 7 7 7 7 7 7 6 6 6 6 5 5 4 4 5 5 4 4 6 6 6 7 7 8 8 9 9 10 10 10 10
20 18 17 16 15 15 14 14 14 15 16 17 17 17 16 14 11 10 10 9 9 10 11 13 13 13 14 15 15 16 18 19 18 18 16 15 14 12 12 12 11 10 10 9 9 9 9 9 10 9 9 9 8 8 8 8 8 7 7 7 7 6 7 6 6 5 6 5 5 6 5 5 7 7 7 7 8 8 9 9 10 10 10 10 11
20 18 17 16 15 15 15 15 15 16 16 17 17 17 16 13 10 10 10 10 10 10 12 14 13 13 14 15 15 16 18 18 18 17 16 14 13 11 11 11 11 10 9 9 9 9 9 9 9 9 9 9 9 9 9 9 8 8 8 7 7 7 7 7 6 5 6 6 6 7 6 6 7 8 8 9 9 9 10 10 10 11 11 11 11
20 18 17 16 16 16 16 16 16 16 16 17 17 16 15 12 10 10 10 10 10 12 13 14 14 14 14 14 15 16 18 18 18 17 15 13 12 11 11 10 10 9 8 8 9 9 9 9 9 9 9 9 9 9 8 9 9 9 8 8 8 7 6 7 7 5 6 6 6 7 7 7 8 8 9 9 10 10 10 10 11 11 12 12 12
20 18 18 16 16 16 16 16 16 16 17 17 16 16 14 11 10 10 11 11 12 13 14 14 14 14 14 14 15 17 18 18 17 16 14 12 11 10 10 10 9 8 8 8 9 9 9 9 9 9 9 9 9 9 8 9 9 9 9 9 9 8 7 7 8 7 6 7 7 7 8 8 9 9 10 10 10 10 10 10 10 11 11 12 12
21 19 18 17 16 15 15 16 16 16 16 17 16 15 13 10 10 10 11 12 13 14 14 14 14 14 14 14 15 17 18 17 17 15 13 11 10 10 9 9 8 7 8 8 9 9 9 9 9 9 9 9 9 9 9 9 9 9 9 9 9 9 7 6 9 8 7 7 8 9 9 9 10 10 10 10 10 10 10 10 10 10 11 11 12
22 20 18 17 16 15 16 16 16 16 16 17 16 14 12 10 10 11 12 13 14 15 15 14 13 13 14 14 15 17 18 17 16 14 12 10 9 9 9 8 7 7 8 9 9 8 9 9 9 9 9 9 10 10 10 10 10 10 10 10 10 9 8 6 8 9 9 8 8 9 9 10 10 10 10 11 11 11 11 11 11 11 11 11 12
22 20 18 17 16 16 16 16 16 16 16 16 15 14 12 10 10 11 13 14 15 16 15 14 12 13 14 14 16 17 18 18 16 14 11 10 9 9 8 7 7 8 8 9 9 9 9 9 9 9 9 9 10 10 10 10 10 10 10 10 10 10 8 7 7 8 9 9 8 8 9 10 10 10 10 10 10 11 11 11 12 12 12 13 13
22 20 19 17 17 16 16 17 16 16 16 16 15 14 12 10 11 13 14 16 16 16 14 13 12 13 14 15 16 17 18 17 16 13 10 9 9 8 8 7 7 8 9 9 8 9 9 9 9 9 9 9 10 10 10 9 9 9 8 8 8 8 8 7 6 6 8 9 8 7 8 9 10 10 9 9 10 10 11 11 12 12 13 14 14
23 21 20 19 18 17 17 17 17 17 17 16 15 14 12 11 13 15 16 17 17 15 13 12 12 13 14 15 16 17 17 17 15 12 10 8 7 7 7 7 8 8 9 9 8 8 8 8 8 9 9 9 10 10 10 9 9 8 8 7 7 6 6 6 7 7 7 8 8 7 8 9 10 10 10 10 11 12 12 13 13 13 13 14 15
24 23 21 20 19 18 18 18 18 17 17 16 16 15 13 13 15 16 17 17 16 14 13 12 12 13 14 14 15 16 17 16 14 11 9 7 6 6 6 7 8 8 8 8 8 8 8 8 9 9 9 10 10 10 10 9 10 9 9 9 8 7 6 6 8 10 10 10 10 10 10 10 11 11 12 12 12 13 14 14 14 14 14 14 15
26 24 23 22 20 20 20 19 18 17 17 17 16 15 14 15 16 17 17 17 15 14 13 12 13 14 14 14 15 16 16 15 13 10 9 7 7 6 5 6 7 7 7 7 7 8 8 8 9 10 10 10 10 10 10 10 10 10 10 10 10 9 8 8 8 11 12 13 12 12 12 11 11 12 12 12 13 14 14 15 14 14 15 15 15
28 27 26 24 22 21 20 18 18 17 16 16 16 15 15 16 17 18 17 16 15 14 13 13 14 14 14 14 14 15 16 15 12 10 9 7 7 6 5 5 6 6 6 7 8 9 9 9 10 10 11 11 11 11 11 11 11 11 11 12 12 11 11 10 10 11 12 14 14 14 14 13 12 12 12 13 13 13 14 14 14 14 14 15 15
28 29 28 26 24 21 19 18 17 15 15 15 15 15 16 17 18 17 17 16 15 14 13 14 14 14 14 14 14 14 14 14 12 10 8 7 7 6 5 5 5 5 5 6 8 10 11 10 10 11 11 12 11 11 11 12 12 12 12 12 13 13 13 12 11 11 12 13 14 15 15 15 14 13 13 13 13 13 14 14 14 14 14 14 15
24 27 28 27 24 20 18 18 16 14 14 15 15 15 17 17 18 17 17 16 15 15 14 14 14 14 15 15 15 14 14 13 11 9 8 7 6 6 5 5 5 5 5 6 7 8 9 10 10 10 11 12 12 12 12 12 12 13 13 13 13 13 13 13 12 12 13 13 14 15 15 15 15 15 15 14 14 14 14 15 15 15 14 13 14
21 24 24 21 19 16 16 16 15 15 14 15 15 16 17 17 18 17 17 16 16 16 15 14 14 14 15 16 16 15 15 13 11 9 7 6 6 5 5 5 4 5 5 5 6 6 7 7 8 9 10 11 12 12 12 12 12 12 13 13 13 13 13 13 12 12 13 14 15 16 16 16 16 16 16 16 15 15 15 16 16 16 15 14 14
20 21 20 18 17 14 14 16 15 15 15 16 16 16 17 17 18 18 18 18 17 17 16 15 14 14 15 15 16 16 15 13 11 8 7 6 5 4 4 4 4 4 5 5 5 5 6 7 7 8 8 9 10 11 12 12 12 12 12 12 13 13 14 13 13 13 14 15 16 16 17 17 17 17 17 17 17 16 16 16 16 16 16 16 15
24 23 21 20 20 16 13 15 15 16 16 16 17 17 17 18 18 19 19 19 19 19 18 17 16 16 15 14 14 15 15 13 10 7 6 5 4 3 3 3 3 4 4 5 5 6 6 7 7 7 8 8 9 10 11 11 11 12 13 13 13 14 14 14 14 14 14 15 16 16 17 17 18 18 18 17 18 18 17 17 17 17 17 17 17
25 23 20 19 19 17 15 14 15 17 17 18 18 18 18 18 19 19 19 19 20 21 20 20 19 19 17 14 13 13 14 13 11 7 5 4 3 3 2 3 3 3 4 5 6 6 7 7 8 8 8 8 9 10 10 11 11 12 13 12 12 12 13 13 13 14 14 15 16 16 17 17 18 18 19 19 19 18 18 18 19 19 18 17 17
23 20 18 19 20 20 18 15 17 18 17 18 18 19 19 19 19 19 19 20 21 22 21 20 20 21 20 17 15 13 12 12 11 8 5 4 3 3 3 3 4 5 5 6 7 8 9 9 10 11 11 11 12 12 13 13 13 13 13 13 13 13 13 13 13 14 14 15 16 17 18 18 19 19 19 20 20 19 19 19 19 20 19 18 18
22 21 22 24 26 25 21 19 19 19 18 18 18 19 19 19 20 20 20 21 22 22 22 21 21 23 23 22 21 19 16 12 11 10 7 4 3 4 4 5 6 6 7 7 9 10 11 12 13 14 14 15 15 15 16 16 17 17 17 17 17 16 16 16 16 16 16 17 17 17 18 18 19 19 19 20 21 21 21 20 19 20 20 20 19
22 23 24 26 27 25 23 21 21 20 19 18 19 20 20 20 20 20 21 22 22 22 22 22 23 25 26 26 26 25 21 14 10 11 9 6 5 5 5 6 7 7 8 9 10 12 13 14 15 15 16 16 17 17 18 18 19 19 20 20 20 19 19 19 18 18 19 19 19 19 18 19 19 20 20 20 20 21 22 22 21 19 19 20 20
22 24 25 26 26 25 25 22 20 21 20 20 21 21 21 21 21 21 22 23 23 22 21 21 22 24 24 25 26 25 22 16 11 11 12 9 7 7 7 8 8 8 9 11 12 13 15 16 16 17 17 18 18 19 19 20 20 21 21 21 21 21 21 20 20 20 20 21 20 20 20 20 20 21 21 21 21 21 22 23 23 22 20 20 20
24 26 28 27 26 27 27 22 19 20 21 22 22 23 22 22 22 22 23 23 23 22 21 20 19 19 19 20 21 20 19 17 12 10 11 11 10 9 10 10 10 10 11 12 13 15 16 17 17 18 18 19 19 20 20 20 21 22 22 22 22 22 22 22 21 21 21 22 22 22 22 22 22 22 23 22 22 22 22 22 23 23 22 21 20
25 28 29 27 26 27 26 22 20 20 21 22 22 23 22 22 23 22 22 23 23 22 21 19 17 16 15 15 16 17 18 16 13 10 11 12 11 11 11 12 12 12 13 13 15 16 17 18 18 19 20 20 21 21 21 22 22 22 23 23 24 24 23 23 23 22 22 22 23 23 23 23 23 23 24 24 24 23 22 22 22 22 23 23 22
24 23 21 21 20 20 19 18 19 20 22 22 21 22 22 21 22 22 21 21 21 21 20 20 18 16 15 15 16 17 16 15 12 9 11 14 13 12 13 13 14 14 14 15 16 17 18 18 19 20 21 21 21 22 22 22 22 23 23 24 24 24 24 24 24 24 24 24 24 24 24 24 24 24 24 24 24 24 23 23 23 23 23 23 24
23 19 15 16 16 17 17 16 16 18 20 21 20 20 21 20 20 21 21 20 19 19 19 19 19 17 16 16 18 18 16 15 12 9 12 16 14 13 13 14 15 15 16 16 16 17 18 19 20 20 21 21 22 22 22 22 22 23 23 24 24 24 25 25 25 25 25 25 25 24 24 24 24 24 24 24 24 24 25 24 24 24 24 23 23
24 20 19 19 20 20 18 16 16 17 18 18 18 18 19 19 19 19 19 19 19 19 19 18 19 18 17 16 18 19 17 15 12 12 15 16 14 14 14 15 16 16 16 16 17 18 19 20 21 21 22 22 22 22 23 23 23 23 24 24 24 25 26 26 26 26 26 27 27 26 25 25 24 24 24 24 24 25 25 25 25 25 26 25 24
25 22 22 23 22 19 17 16 16 18 19 18 16 17 18 18 18 17 17 18 19 19 18 18 18 18 17 16 16 17 16 14 12 13 16 16 14 14 15 16 17 16 16 17 18 19 20 21 22 22 23 23 23 23 24 24 24 25 25 25 25 25 26 26 26 27 27 28 28 28 27 26 26 26 26 26 26 26 25 26 26 26 26 26 26
25 22 22 21 20 18 17 17 17 18 19 17 15 15 16 17 17 17 17 17 17 17 17 17 18 18 18 16 15 16 16 13 12 15 17 16 15 15 16 17 17 17 17 18 19 20 21 22 23 23 23 23 23 24 24 25 26 26 26 26 26 25 27 28 28 28 29 29 29 29 28 28 27 27 27 27 27 27 26 26 26 26 27 27 27
22 20 19 20 20 19 18 18 17 18 17 15 13 13 14 15 16 16 16 16 16 15 14 14 15 16 16 15 16 17 15 13 14 17 16 15 16 17 17 18 17 18 18 19 20 22 22 23 24 24 24 23 24 24 25 25 26 27 27 27 26 26 27 29 30 30 31 31 31 30 29 29 29 28 28 28 28 28 28 28 28 27 27 27 28
21 19 20 20 21 21 19 18 16 16 15 12 10 10 11 12 12 12 12 12 12 12 10 8 7 9 11 14 16 16 13 13 16 17 16 17 17 17 17 17 18 19 19 20 21 23 24 24 24 25 25 25 25 25 25 26 26 27 27 28 28 28 29 31 32 32 32 32 31 31 30 30 30 29 28 28 28 28 29 29 29 28 27 27 28
21 22 22 22 20 19 18 16 15 15 13 9 7 7 7 7 7 7 8 8 9 8 6 6 7 9 12 14 15 14 13 14 16 17 17 18 18 17 17 17 19 20 21 21 22 23 24 25 25 26 26 26 26 26 27 27 27 28 28 29 31 32 32 33 33 33 32 31 31 31 31 31 31 30 30 29 29 29 29 30 30 29 28 27 27
21 21 20 19 17 16 16 15 14 15 11 7 4 4 3 4 4 6 7 6 7 7 7 8 10 12 13 14 13 12 14 15 16 17 17 17 17 18 18 19 20 21 21 22 23 24 24 25 26 27 27 27 28 28 28 28 29 30 31 31 32 33 33 33 33 34 34 32 32 32 32 32 33 32 31 31 31 31 31 31 31 30 30 29 28
20 20 18 17 15 14 15 14 14 13 10 6 4 4 4 4 5 6 6 6 6 8 9 11 11 12 13 12 12 12 14 15 16 17 17 17 18 18 19 20 21 21 22 22 24 25 25 26 27 28 29 29 29 29 30 30 31 32 33 34 35 34 33 33 32 33 34 34 34 34 34 34 34 34 34 33 33 33 33 33 33 32 32 32 30
18 17 16 16 14 14 14 13 13 11 9 6 5 5 5 6 6 6 7 7 7 9 10 11 11 13 13 11 11 13 15 16 17 17 17 17 18 18 19 20 21 22 22 24 25 26 26 27 28 28 29 30 31 31 32 33 35 36 36 37 37 37 36 35 33 32 33 34 35 36 37 37 37 37 36 35 35 35 35 36 35 35 34 34 32
15 14 14 14 13 13 13 12 11 10 8 7 7 7 7 7 7 8 8 8 9 10 10 11 13 14 12 11 12 14 16 17 17 17 17 17 18 19 19 20 22 23 24 25 26 26 27 28 28 29 30 31 32 34 35 36 37 38 38 39 39 38 38 37 36 35 34 34 35 36 38 39 40 40 39 38 38 37 37 38 38 38 37 36 35
12 12 12 12 13 14 14 11 10 10 9 9 8 8 8 9 9 8 8 8 10 10 10 12 14 13 12 12 13 15 16 16 16 17 17 18 19 20 21 22 23 24 25 25 26 27 27 28 29 31 32 34 35 37 38 39 39 39 39 40 39 39 39 38 38 38 37 36 35 36 37 39 40 41 41 41 41 40 40 40 40 40 39 39 37
12 12 12 12 13 15 13 10 9 9 9 9 9 9 9 9 9 8 8 9 10 11 12 13 14 13 12 12 13 15 16 16 16 17 18 19 20 21 22 23 23 24 25 26 27 28 29 31 32 34 35 37 38 39 39 39 40 40 40 40 40 40 40 40 40 40 40 40 40 39 39 38 40 42 43 44 44 43 42 42 41 41 40 40 39
13 13 13 13 14 15 13 10 10 9 8 8 9 9 9 9 9 8 9 10 11 12 13 13 13 12 12 13 14 15 16 16 17 18 19 20 21 22 23 24 24 25 27 28 29 30 32 34 35 36 37 38 39 39 39 39 39 39 39 40 40 40 41 41 42 42 43 43 43 43 42 41 41 42 44 45 46 45 45 44 43 42 41 41 40
14 15 14 14 14 16 15 12 11 8 7 8 9 9 9 9 9 9 9 10 11 12 12 12 12 13 13 14 15 15 16 17 18 19 20 21 22 23 24 25 26 27 29 30 31 33 34 35 37 37 38 39 39 39 38 38 38 38 38 39 39 40 41 41 42 42 43 43 44 44 44 44 43 43 42 43 44 45 46 45 45 44 44 43 43
Wind_Direction
305 301 303 306 316 326 332 339 342 344 346 347 347 348 350 350 347 340 336 334 338 345 351 354 354 353 353 353 352 352 351 350 350 352 354 353 351 348 347 347 344 343 347 353 359 9 16 18 19 19 19 18 19 19 19 18 17 18 19 21 19 20 21 18 15 17 22 22 19 17 17 14 11 6 356 348 337 332 327 323 318 313 310 306 303
303 301 303 305 313 320 327 335 339 342 343 344 344 346 348 348 344 337 332 330 334 341 348 351 352 351 350 350 350 351 351 350 351 352 353 352 351 348 348 348 346 345 346 349 355 5 13 16 19 21 22 22 22 21 19 17 17 17 17 19 19 18 17 15 15 19 26 26 23 19 15 7 4 1 351 342 334 329 325 320 315 309 306 303 299
304 304 304 304 310 316 322 330 335 338 339 340 341 343 345 345 342 333 327 327 330 338 344 347 348 348 348 348 348 350 351 351 352 352 351 351 350 349 349 349 348 347 347 348 354 3 11 15 19 23 25 25 24 22 21 19 17 16 16 16 13 10 5 2 3 7 14 16 16 14 11 359 349 353 347 335 327 321 317 312 307 303 300 297 293
306 305 303 302 306 309 318 325 330 333 335 336 338 339 341 342 339 330 322 322 326 334 340 342 343 345 345 345 346 348 351 352 351 351 351 350 350 350 349 350 350 349 348 350 357 4 11 16 21 26 28 27 25 24 23 20 18 16 16 14 10 4 357 354 354 359 3 3 3 1 4 357 344 348 344 329 319 313 309 304 301 299 296 294 291
307 306 302 300 302 304 313 320 324 328 330 332 334 335 337 339 337 327 317 317 322 330 335 336 338 342 343 343 345 347 350 353 352 351 351 350 350 350 350 351 352 351 351 354 0 7 14 20 25 28 27 26 24 23 23 21 20 19 17 12 8 360 354 350 349 356 356 356 358 356 359 349 337 343 339 325 318 312 307 303 300 299 298 296 295
307 304 300 297 298 301 309 314 319 323 325 327 329 332 335 337 334 323 312 311 318 325 328 329 334 339 341 341 343 346 350 352 352 351 351 350 350 351 351 352 353 354 356 360 5 11 17 21 25 25 23 22 21 20 21 22 22 21 17 11 5 358 351 348 344 345 347 353 353 353 352 337 330 338 332 321 316 311 308 304 301 300 300 299 299
306 301 296 293 294 298 305 309 314 318 320 322 324 328 332 334 330 317 307 306 312 318 320 324 330 335 338 340 342 345 348 350 351 351 351 351 351 352 352 353 355 357 1 6 9 15 17 18 19 18 17 18 18 19 19 20 22 21 18 13 7 1 354 348 343 340 344 346 345 348 340 324 327 332 323 314 310 307 303 300 299 299 301 302 302
304 298 293 291 293 297 300 303 308 311 313 316 320 325 328 330 325 310 300 299 304 310 313 319 325 332 337 339 341 343 346 349 350 350 350 351 351 352 352 353 356 359 3 8 12 14 14 13 13 12 13 14 17 19 20 20 21 20 18 17 12 5 357 351 345 343 342 333 336 336 321 314 324 324 313 308 305 301 297 295 294 295 297 299 300
303 297 292 291 294 294 295 298 302 304 307 310 315 320 324 325 318 301 293 291 295 302 308 315 320 328 335 338 339 342 345 348 349 350 350 350 351 350 352 353 356 360 2 7 9 10 10 10 10 11 10 11 15 17 21 22 21 21 20 19 14 5 357 355 350 344 333 326 327 311 304 317 319 313 305 302 299 297 296 294 291 290 290 290 290
301 297 293 293 293 290 289 292 294 298 301 305 311 315 319 319 310 292 285 283 288 297 303 310 315 325 333 337 338 341 344 346 348 349 349 350 350 349 351 353 356 360 2 5 6 6 7 8 8 9 8 8 11 15 20 24 25 24 22 19 12 4 356 355 353 344 328 322 314 297 311 324 309 301 297 296 296 294 293 291 289 286 284 282 281
301 299 296 294 289 285 284 286 290 293 297 301 306 309 313 313 300 283 279 279 284 293 299 304 311 322 331 335 338 341 343 345 347 348 349 349 349 348 349 352 356 359 1 3 5 5 5 6 6 6 7 8 11 15 18 23 27 27 24 18 10 1 354 351 350 342 331 327 314 305 321 315 300 299 296 296 296 292 289 287 286 283 280 277 275
301 299 295 291 285 283 282 284 286 289 292 296 301 304 308 306 290 277 275 276 282 289 294 300 308 319 328 334 338 340 342 344 347 349 349 348 348 348 348 351 354 358 360 3 6 7 8 7 7 9 9 11 15 18 21 23 25 26 24 17 10 2 353 349 348 343 334 332 322 314 320 310 304 304 300 298 295 290 288 285 285 284 282 277 274
298 297 292 289 285 283 282 282 283 285 288 291 296 300 303 298 281 273 272 274 278 284 289 297 306 316 326 334 337 338 341 345 347 349 348 347 346 347 347 350 353 357 1 6 11 12 13 13 14 16 16 18 22 25 27 26 25 24 21 15 9 5 355 344 345 348 332 328 326 321 322 317 312 309 305 303 298 295 293 291 290 289 287 284 279
297 295 292 290 286 283 280 279 279 281 284 288 294 297 297 289 274 269 269 271 274 279 286 295 305 313 324 332 335 337 341 346 347 348 347 346 345 346 347 349 353 358 6 12 16 18 19 22 24 26 26 27 28 29 29 29 27 22 19 14 7 6 359 338 335 350 335 326 327 324 323 319 314 312 310 307 305 304 302 299 296 294 292 290 286
295 292 289 287 283 280 279 277 278 280 282 287 290 291 289 280 268 266 266 267 270 276 284 294 303 311 323 330 332 336 342 345 346 347 346 345 343 344 346 347 354 3 12 16 19 22 24 27 30 34 35 33 32 31 31 31 29 24 20 15 10 9 4 337 326 342 342 329 330 330 328 325 320 317 313 311 309 308 306 304 300 297 294 292 290
292 289 286 283 280 279 278 278 277 279 281 284 285 284 279 270 263 262 263 264 267 274 284 293 300 310 321 326 330 336 342 345 345 345 344 344 343 343 345 348 357 6 13 16 18 22 24 28 32 37 38 38 38 38 38 37 35 31 27 21 19 16 13 345 325 337 342 331 331 332 330 326 321 318 314 312 311 311 310 308 305 301 297 294 293
289 285 281 279 280 280 278 277 277 278 279 279 278 275 270 261 257 257 259 260 265 272 282 290 297 310 319 323 329 336 341 343 343 343 343 344 344 343 344 350 358 5 11 12 14 19 24 28 31 36 40 41 42 43 43 42 41 39 34 30 28 27 25 2 333 338 341 334 332 327 322 319 315 313 313 313 314 314 312 310 308 304 300 297 296
287 282 280 281 281 281 278 277 277 276 275 272 270 268 263 255 253 253 254 257 263 270 278 287 297 309 315 320 329 336 339 341 341 342 344 346 346 345 345 352 358 1 6 8 10 14 20 26 29 34 37 37 38 39 40 40 41 41 39 36 35 35 33 18 351 344 341 340 340 330 321 316 314 313 312 313 313 312 309 305 301 297 295 293 293
287 284 285 287 285 282 279 277 275 273 270 267 265 263 259 252 250 249 250 255 260 267 277 288 298 306 311 319 328 334 338 340 340 341 345 349 350 348 346 351 355 356 0 3 8 10 14 20 25 28 28 28 29 30 32 34 36 37 38 38 38 38 35 24 2 350 343 342 345 339 327 321 319 315 310 306 304 302 300 297 294 291 288 287 288
286 286 289 288 285 281 277 274 272 269 266 264 262 260 256 251 248 246 248 253 259 268 280 289 294 300 308 317 326 333 337 338 338 339 343 349 350 349 347 348 351 352 357 1 5 8 10 14 16 19 20 21 22 22 23 25 25 25 26 28 29 29 26 10 348 339 338 337 336 332 325 322 321 319 313 306 301 299 297 296 293 290 289 288 287
284 286 289 286 283 279 275 273 271 268 265 262 260 257 253 249 246 246 248 254 262 272 281 284 288 296 306 315 324 331 335 336 336 335 337 343 346 346 347 350 351 351 359 2 1 6 8 9 9 11 14 15 16 15 15 15 14 13 13 13 14 14 11 359 339 330 331 331 328 325 322 319 317 315 313 308 303 300 299 299 295 293 293 293 290
280 283 284 284 282 279 277 276 274 270 266 262 258 255 252 250 248 248 251 257 264 272 277 280 285 293 303 312 320 327 331 333 331 328 330 336 339 343 350 355 356 354 0 359 356 2 7 7 5 4 5 7 8 7 7 7 7 6 4 3 3 5 4 359 345 334 332 330 328 327 324 321 318 315 312 308 304 302 301 301 300 298 298 298 296
280 282 283 284 283 282 282 282 279 273 267 262 259 257 255 253 251 252 254 260 266 271 276 278 282 290 298 306 314 321 327 329 326 324 325 330 335 342 351 355 359 0 0 355 353 356 1 2 359 357 356 358 2 3 3 3 3 1 359 357 356 356 356 355 350 340 335 330 329 329 328 326 324 320 317 314 310 307 304 302 301 301 301 302 300
280 280 279 278 278 281 282 281 279 274 269 265 262 260 259 258 257 257 260 264 269 274 277 278 281 288 295 300 307 316 323 324 322 321 322 326 333 339 348 358 1 1 1 355 354 353 354 354 353 354 354 355 1 3 2 1 0 359 357 356 354 351 349 349 346 340 335 330 328 329 329 328 327 324 320 316 313 310 307 305 303 303 302 301 301
274 270 268 267 267 272 275 276 276 273 270 267 264 262 261 261 262 264 267 269 272 275 278 280 284 289 293 297 303 310 317 319 319 316 317 324 331 337 348 1 1 360 3 358 357 355 351 350 351 356 357 356 0 3 4 3 1 360 359 358 354 351 349 346 342 337 332 329 327 326 327 327 326 323 318 315 314 310 308 307 306 305 303 302 301
267 261 258 254 252 259 270 272 273 271 269 266 264 264 264 266 267 267 267 268 270 272 277 280 284 287 289 294 300 306 312 317 316 311 313 319 325 338 350 360 3 4 7 1 1 359 351 350 352 358 2 359 1 3 4 3 1 359 359 359 356 354 353 349 343 336 331 329 327 325 324 323 321 319 316 314 313 310 307 306 304 303 302 302 301
267 262 257 249 243 249 265 270 271 271 267 266 266 266 267 268 268 269 267 267 267 269 272 275 278 279 281 287 295 304 311 315 312 307 308 313 320 340 353 357 7 8 8 6 4 359 354 353 353 359 3 360 360 1 360 0 358 356 356 358 358 356 354 351 346 340 334 331 328 324 321 318 316 315 313 311 310 309 307 306 303 300 298 299 299
273 274 272 266 254 248 261 271 273 271 269 270 269 269 269 271 272 272 271 271 270 269 269 269 269 268 271 280 290 299 305 306 304 302 305 308 317 336 345 350 8 12 3 3 358 352 352 349 345 352 357 355 355 353 352 353 351 351 353 355 355 352 351 350 347 344 338 333 327 322 320 317 314 312 310 309 307 307 306 304 302 299 297 296 295
284 283 280 279 272 262 265 276 276 275 277 276 273 272 272 273 274 275 275 274 271 269 269 269 270 269 268 270 277 287 295 296 295 296 298 299 306 317 330 340 353 360 355 355 349 343 342 337 334 338 341 343 345 344 343 343 344 345 347 347 344 343 344 342 341 339 335 330 326 323 320 318 315 312 311 310 307 305 304 303 301 300 298 296 293
292 285 274 278 289 284 276 277 281 283 282 279 276 273 273 273 273 274 274 273 271 271 272 272 274 274 270 266 263 266 274 282 286 283 278 287 299 302 313 330 334 335 339 342 335 329 329 328 329 331 334 336 338 338 338 337 338 337 336 334 333 334 333 331 331 330 328 326 325 323 321 320 318 316 314 312 309 307 306 303 300 299 298 297 294
293 285 274 277 287 288 284 281 279 283 282 280 278 274 273 272 272 273 273 273 274 275 276 276 276 276 273 268 264 262 259 257 270 276 272 278 294 299 307 315 317 317 325 330 325 323 325 325 327 328 330 331 332 332 332 331 331 330 329 328 328 328 327 326 326 324 323 322 321 320 319 319 317 316 314 311 310 310 309 306 301 298 298 297 296
292 286 280 281 281 281 288 287 278 280 283 281 279 276 274 273 273 273 273 274 276 278 280 279 277 275 274 270 267 268 260 243 247 266 271 275 282 292 300 302 304 309 314 317 317 318 318 319 320 321 322 323 324 324 325 325 325 324 324 323 323 323 322 321 319 318 317 316 316 315 315 314 313 313 312 311 310 308 307 306 304 302 299 298 298
291 287 284 283 278 276 288 292 280 278 281 282 280 278 276 274 274 273 273 274 276 280 282 282 278 276 276 271 268 269 259 239 231 254 268 275 279 287 293 296 300 303 304 307 311 311 310 311 312 314 316 317 318 319 320 321 320 320 320 319 318 317 316 315 315 314 313 313 311 310 309 308 307 307 308 309 309 308 306 303 303 304 303 301 298
290 286 282 279 274 274 283 286 278 276 278 280 279 279 278 276 275 274 273 275 277 280 281 281 278 275 275 270 268 266 256 241 231 238 259 269 276 286 294 299 300 300 301 305 308 307 307 308 310 312 314 315 316 317 318 318 317 317 316 316 315 314 314 314 314 314 313 312 310 308 306 305 304 303 303 304 305 306 306 304 302 301 302 302 299
293 288 278 273 271 271 276 276 273 277 280 281 278 277 280 278 276 274 273 275 276 277 277 276 274 272 271 267 265 263 258 249 235 233 255 269 277 287 295 298 300 303 306 307 308 307 308 309 311 312 313 314 315 315 315 316 315 315 315 314 314 314 315 315 315 315 314 312 310 309 308 307 306 304 302 301 301 301 302 303 302 300 299 299 299
295 295 278 267 268 268 275 278 276 279 283 285 282 277 279 279 277 274 273 274 275 275 273 272 270 266 264 263 262 262 261 253 244 248 267 275 282 288 293 299 303 307 309 309 309 309 309 311 312 312 313 314 314 314 314 314 314 314 314 314 314 314 313 314 314 314 313 312 310 309 309 308 307 305 303 301 299 297 296 296 297 297 297 296 296
286 292 278 267 267 268 279 286 284 288 287 285 283 278 277 277 275 273 271 272 273 275 273 271 269 264 262 263 263 262 259 255 261 276 275 278 285 290 296 302 305 307 306 307 308 308 310 311 311 312 312 313 313 313 312 313 313 313 314 313 313 312 312 312 313 314 313 312 310 309 309 308 306 304 302 300 298 295 293 291 290 291 292 292 292
279 278 274 272 271 270 277 281 286 294 292 285 280 277 275 275 274 272 271 270 271 275 275 272 269 265 264 266 264 256 250 257 274 282 276 279 286 291 297 301 302 302 303 306 307 308 310 311 311 311 311 312 312 312 312 312 312 312 312 312 312 311 311 311 313 314 313 312 311 310 309 307 305 303 301 298 295 293 290 288 286 285 286 288 290
274 271 272 273 270 269 273 276 285 294 293 286 278 273 272 272 272 272 271 269 269 274 276 274 269 264 262 266 262 248 248 264 275 273 273 277 283 289 295 296 297 299 301 305 307 309 310 310 310 310 311 312 311 311 311 311 311 311 311 310 310 310 310 311 313 313 312 311 311 310 309 308 306 303 301 298 295 292 289 287 284 282 282 283 285
270 268 268 267 264 267 272 274 282 291 291 286 278 272 270 269 270 272 271 270 272 275 276 273 268 263 258 259 255 250 258 269 268 266 270 276 282 288 291 293 296 298 301 306 309 310 310 309 309 310 311 310 310 309 310 310 310 309 309 308 309 310 310 311 312 312 311 311 310 310 309 308 306 304 301 298 296 293 290 287 284 282 280 279 279
266 263 262 261 262 268 274 275 279 286 287 283 280 277 272 268 268 269 270 272 275 275 271 269 267 261 252 248 251 257 264 264 261 265 271 278 284 287 290 293 296 299 304 309 310 310 308 308 309 309 309 308 307 307 307 307 306 306 306 306 308 310 311 311 311 311 311 310 310 310 310 308 307 305 303 300 297 294 290 287 285 282 280 279 277
258 256 258 263 267 270 272 273 276 284 286 281 280 280 273 268 264 262 265 270 273 272 262 254 260 260 252 250 255 260 261 261 264 269 276 281 283 285 289 294 299 304 308 310 309 307 306 307 307 307 307 306 305 304 304 303 302 302 304 306 307 309 310 310 311 310 309 309 309 309 309 308 307 305 304 301 298 294 291 289 286 284 282 280 278
259 256 259 265 268 267 266 268 274 281 280 275 277 277 268 258 250 247 252 260 266 257 230 229 265 273 263 258 257 258 259 263 269 274 278 281 283 288 294 300 304 307 308 307 305 304 304 306 305 305 305 304 303 302 301 301 301 302 304 306 308 309 310 310 309 308 307 306 306 307 308 307 306 305 303 301 298 295 293 291 289 286 283 281 279
260 256 256 260 262 260 260 265 274 275 266 259 259 245 220 212 220 228 237 251 255 241 233 260 280 275 260 255 257 260 264 266 270 274 278 283 289 295 300 303 304 304 303 303 302 302 303 303 303 303 303 303 302 301 301 301 302 303 304 306 307 308 309 308 307 307 306 306 306 306 307 306 305 304 302 300 298 296 294 292 291 289 286 283 279
258 255 253 254 255 254 257 263 266 260 245 230 219 202 184 191 209 220 228 237 243 243 256 275 278 266 256 254 257 262 265 269 273 277 282 289 295 299 301 302 301 301 301 300 300 301 302 302 302 302 303 302 302 302 302 302 303 304 305 306 306 307 306 306 305 305 306 307 306 306 307 306 305 303 302 300 299 297 295 293 291 289 287 284 281
258 254 250 248 248 248 250 250 246 237 225 214 207 200 191 195 210 221 229 237 244 249 258 265 263 259 258 258 262 267 271 275 278 283 288 293 296 297 298 299 300 300 300 300 300 301 301 301 301 301 301 301 302 303 303 304 304 305 305 305 306 306 305 305 304 303 303 305 305 306 306 306 305 303 302 300 299 297 295 294 292 289 287 284 282
260 256 251 244 239 239 235 230 227 224 219 216 215 209 205 215 229 237 242 248 250 249 249 250 253 256 260 265 268 271 274 278 282 287 292 294 296 296 297 299 300 300 300 300 300 300 300 300 300 300 300 301 302 303 303 304 305 305 305 305 305 305 305 305 304 303 302 303 303 304 304 304 304 303 301 300 298 296 294 293 291 289 287 285 283
262 261 254 242 234 226 220 221 224 220 218 222 225 222 223 232 239 241 242 245 247 248 247 247 251 256 262 267 270 273 277 281 286 290 292 295 298 298 299 300 300 299 299 299 300 300 300 300 300 301 300 301 301 302 303 304 305 305 305 305 305 305 305 305 304 303 303 302 301 302 302 301 301 300 299 299 297 296 294 292 290 289 287 285 282
261 261 253 244 233 221 219 223 212 203 210 221 227 229 231 234 234 234 233 237 242 245 246 248 252 257 262 267 272 276 279 283 288 290 292 297 300 300 300 301 301 301 301 301 302 302 302 301 301 301 300 300 301 301 302 304 305 305 305 306 306 306 306 305 305 304 304 304 304 304 303 302 301 300 299 298 296 295 293 292 290 289 287 286 283
257 256 251 246 235 227 228 220 199 198 214 223 229 232 231 231 232 234 234 236 241 244 248 253 259 266 271 274 276 278 281 286 291 293 295 299 301 301 302 305 305 305 304 304 304 303 302 302 301 301 300 300 301 302 303 304 304 305 306 306 307 307 306 306 306 306 306 306 306 305 304 303 302 300 299 298 297 296 294 293 291 290 288 286 284
254 254 252 248 241 236 229 213 203 213 221 220 227 229 228 231 233 237 238 238 242 247 256 265 272 277 278 278 281 284 289 292 294 297 299 301 304 306 307 308 307 305 303 303 303 303 302 302 301 301 301 301 302 303 304 305 305 305 306 306 306 306 306 306 306 306 306 305 305 304 303 303 301 300 298 296 296 295 295 294 293 291 290 288 286
Height
5899 5899 5899 5898 5897 5897 5896 5896 5895 5894 5893 5892 5891 5890 5889 5888 5887 5886 5885 5885 5884 5882 5881 5880 5879 5878 5876 5876 5874 5873 5872 5871 5870 5868 5867 5866 5864 5863 5862 5861 5860 5859 5858 5857 5856 5856 5856 5855 5854 5853 5852 5852 5851 5850 5850 5849 5848 5848 5848 5847 5847 5847 5846 5846 5846 5845 5845 5844 5844 5844 5843 5843 5843 5842 5842 5841 5841 5840 5840 5839 5839 5838 5837 5836 5836
5898 5898 5897 5897 5896 5896 5896 5895 5894 5894 5893 5892 5891 5890 5889 5887 5886 5885 5885 5884 5883 5882 5881 5880 5879 5877 5876 5875 5874 5873 5872 5871 5870 5869 5867 5866 5864 5863 5862 5861 5859 5858 5857 5857 5856 5856 5855 5855 5854 5853 5852 5852 5851 5850 5850 5849 5849 5848 5848 5848 5847 5847 5847 5846 5846 5845 5845 5844 5844 5844 5843 5843 5842 5842 5842 5841 5841 5840 5839 5839 5838 5837 5837 5836 5835
5897 5897 5896 5895 5895 5895 5895 5894 5894 5893 5892 5892 5891 5890 5888 5887 5886 5885 5884 5884 5883 5882 5881 5880 5878 5877 5876 5875 5874 5873 5872 5871 5870 5869 5867 5866 5864 5863 5862 5861 5859 5858 5857 5857 5856 5856 5855 5855 5854 5853 5853 5852 5851 5851 5850 5849 5849 5848 5848 5848 5847 5847 5847 5846 5846 5845 5845 5844 5844 5843 5843 5843 5842 5842 5841 5841 5840 5840 5839 5838 5837 5837 5836 5835 5834
5896 5895 5895 5894 5894 5894 5894 5894 5893 5893 5892 5891 5890 5889 5888 5887 5885 5885 5884 5883 5883 5882 5880 5879 5878 5877 5876 5875 5874 5873 5872 5871 5870 5869 5867 5866 5865 5863 5862 5860 5859 5858 5857 5856 5856 5856 5855 5855 5854 5853 5853 5852 5851 5851 5850 5849 5849 5849 5848 5848 5847 5847 5847 5846 5845 5845 5845 5844 5844 5843 5843 5842 5842 5841 5841 5840 5840 5839 5838 5838 5837 5836 5835 5835 5834
5895 5894 5893 5893 5893 5893 5893 5893 5892 5892 5891 5890 5889 5888 5887 5886 5885 5884 5883 5883 5882 5881 5880 5879 5878 5876 5875 5874 5874 5873 5872 5871 5870 5869 5868 5866 5865 5863 5862 5860 5859 5858 5857 5856 5856 5856 5855 5855 5854 5853 5853 5852 5851 5851 5850 5849 5849 5849 5848 5848 5847 5847 5846 5846 5845 5845 5844 5844 5843 5843 5842 5842 5841 5841 5840 5840 5839 5838 5838 5837 5837 5836 5835 5834 5833
5893 5893 5892 5892 5892 5892 5892 5892 5891 5891 5890 5889 5888 5888 5886 5885 5884 5883 5883 5882 5881 5880 5879 5878 5877 5876 5875 5874 5873 5873 5872 5871 5870 5869 5868 5866 5865 5863 5862 5860 5859 5859 5858 5857 5856 5856 5855 5854 5854 5853 5853 5852 5851 5851 5850 5849 5849 5848 5848 5847 5847 5846 5846 5845 5845 5844 5844 5843 5843 5842 5842 5841 5841 5840 5840 5839 5839 5838 5837 5837 5836 5835 5834 5834 5833
5892 5891 5891 5891 5891 5891 5891 5890 5890 5890 5889 5888 5887 5886 5885 5884 5883 5883 5882 5881 5880 5880 5879 5878 5877 5876 5875 5874 5873 5872 5872 5871 5870 5869 5868 5866 5865 5863 5862 5861 5860 5859 5858 5857 5856 5856 5855 5855 5854 5853 5853 5852 5851 5851 5850 5849 5849 5848 5848 5847 5846 5846 5845 5845 5844 5844 5843 5843 5842 5842 5841 5841 5840 5840 5839 5839 5838 5838 5837 5836 5835 5835 5834 5833 5832
5891 5890 5889 5889 5890 5890 5890 5889 5889 5888 5888 5887 5886 5886 5885 5884 5883 5882 5881 5880 5880 5879 5878 5877 5876 5875 5874 5874 5873 5872 5871 5871 5870 5869 5867 5866 5864 5863 5862 5861 5860 5859 5858 5857 5857 5856 5855 5855 5854 5853 5852 5852 5851 5850 5850 5849 5849 5848 5847 5847 5846 5845 5844 5844 5844 5843 5843 5842 5842 5841 5841 5840 5840 5839 5839 5838 5837 5837 5836 5835 5835 5834 5833 5832 5832
5890 5889 5888 5888 5889 5889 5888 5888 5888 5887 5887 5886 5885 5885 5884 5883 5882 5881 5880 5880 5879 5878 5878 5877 5876 5875 5874 5873 5873 5872 5871 5870 5869 5868 5867 5865 5864 5863 5862 5861 5860 5859 5858 5857 5857 5856 5855 5855 5854 5853 5852 5852 5851 5850 5850 5849 5849 5848 5847 5846 5845 5844 5844 5843 5843 5842 5842 5841 5841 5841 5840 5840 5839 5839 5838 5837 5837 5836 5835 5835 5834 5833 5832 5832 5831
5888 5888 5887 5887 5887 5887 5887 5887 5886 5886 5886 5885 5884 5884 5883 5882 5881 5880 5879 5879 5878 5878 5877 5876 5875 5874 5874 5873 5872 5871 5871 5870 5869 5868 5866 5865 5864 5863 5862 5861 5860 5859 5858 5857 5857 5856 5855 5854 5854 5853 5852 5851 5851 5850 5849 5849 5848 5848 5847 5846 5845 5844 5843 5843 5843 5842 5842 5841 5841 5840 5839 5839 5839 5838 5838 5837 5836 5835 5835 5834 5833 5832 5832 5831 5830
5887 5887 5886 5886 5886 5886 5886 5886 5885 5885 5884 5884 5883 5883 5882 5881 5880 5879 5879 5878 5878 5877 5876 5875 5875 5874 5873 5873 5872 5871 5870 5869 5868 5867 5866 5864 5863 5862 5861 5861 5860 5859 5858 5857 5856 5856 5855 5854 5854 5853 5852 5851 5851 5850 5849 5849 5848 5847 5847 5846 5845 5844 5843 5842 5842 5842 5841 5841 5840 5839 5839 5838 5838 5838 5837 5836 5836 5835 5834 5833 5832 5832 5831 5830 5829
5886 5886 5885 5885 5885 5884 5884 5884 5884 5884 5883 5883 5882 5882 5881 5880 5879 5878 5878 5878 5877 5876 5876 5875 5874 5874 5873 5872 5871 5871 5870 5869 5868 5866 5865 5864 5863 5862 5861 5860 5859 5859 5858 5857 5856 5856 5855 5854 5853 5853 5852 5852 5851 5850 5849 5849 5848 5847 5846 5846 5845 5844 5843 5842 5842 5841 5841 5840 5840 5839 5838 5838 5838 5837 5836 5836 5835 5834 5833 5833 5832 5831 5830 5829 5828
5885 5885 5884 5884 5883 5883 5883 5883 5883 5882 5882 5882 5881 5880 5879 5878 5878 5878 5878 5877 5877 5876 5875 5874 5874 5873 5873 5872 5871 5870 5869 5868 5867 5866 5864 5863 5862 5861 5861 5860 5859 5858 5857 5857 5856 5856 5855 5854 5853 5853 5852 5852 5851 5850 5849 5849 5848 5847 5846 5845 5845 5844 5843 5842 5842 5842 5841 5840 5839 5839 5838 5838 5837 5837 5836 5835 5834 5834 5833 5832 5831 5830 5829 5828 5828
5884 5883 5883 5882 5882 5881 5881 5881 5881 5881 5881 5880 5880 5879 5878 5877 5877 5877 5877 5877 5876 5875 5874 5874 5873 5873 5872 5871 5870 5870 5869 5868 5866 5865 5864 5862 5862 5861 5860 5859 5858 5858 5857 5857 5856 5855 5855 5854 5853 5853 5852 5852 5851 5850 5850 5849 5848 5847 5846 5845 5845 5844 5844 5842 5842 5842 5841 5840 5840 5839 5838 5837 5837 5836 5835 5834 5834 5833 5832 5832 5831 5830 5829 5828 5827
5882 5882 5881 5881 5880 5880 5880 5880 5880 5879 5879 5879 5878 5878 5877 5877 5877 5877 5877 5876 5875 5874 5874 5873 5873 5872 5872 5871 5870 5869 5868 5867 5866 5864 5863 5862 5861 5861 5860 5859 5858 5858 5857 5856 5856 5855 5854 5854 5853 5852 5852 5851 5851 5850 5849 5849 5848 5847 5846 5845 5845 5844 5844 5842 5841 5842 5841 5840 5840 5839 5838 5837 5836 5835 5835 5834 5833 5832 5832 5831 5830 5829 5828 5827 5826
5880 5880 5880 5879 5879 5879 5878 5878 5878 5878 5878 5877 5877 5876 5876 5876 5876 5876 5876 5875 5874 5874 5873 5873 5872 5872 5871 5870 5869 5868 5867 5866 5865 5864 5863 5862 5861 5860 5860 5859 5858 5858 5857 5856 5855 5855 5854 5853 5853 5852 5851 5851 5850 5850 5849 5848 5848 5847 5846 5845 5845 5844 5844 5843 5841 5841 5841 5840 5839 5839 5838 5837 5836 5835 5834 5833 5832 5831 5830 5830 5829 5828 5827 5826 5825
5879 5878 5878 5878 5877 5877 5877 5877 5877 5876 5876 5876 5875 5875 5875 5875 5875 5875 5875 5874 5873 5873 5872 5872 5871 5871 5870 5869 5869 5868 5867 5865 5864 5863 5862 5861 5861 5860 5859 5859 5858 5857 5857 5856 5855 5854 5854 5853 5852 5852 5851 5850 5850 5849 5849 5848 5847 5847 5846 5845 5845 5844 5843 5842 5841 5840 5840 5840 5839 5838 5837 5836 5835 5834 5833 5832 5831 5830 5829 5829 5828 5827 5826 5824 5823
5877 5877 5877 5876 5876 5876 5876 5875 5875 5875 5875 5874 5874 5874 5873 5874 5874 5874 5874 5873 5872 5871 5871 5871 5871 5870 5869 5868 5868 5867 5866 5865 5864 5863 5862 5861 5860 5860 5859 5859 5858 5857 5857 5856 5855 5854 5853 5853 5852 5852 5851 5850 5850 5849 5849 5848 5847 5846 5846 5845 5844 5843 5843 5842 5840 5839 5839 5838 5838 5837 5836 5835 5834 5833 5832 5831 5830 5829 5828 5827 5826 5825 5824 5823 5822
5876 5876 5875 5875 5875 5875 5874 5874 5874 5874 5873 5873 5872 5872 5872 5872 5873 5873 5872 5871 5871 5870 5870 5870 5870 5869 5868 5868 5867 5867 5865 5864 5863 5862 5862 5861 5861 5860 5859 5859 5858 5857 5856 5856 5855 5854 5853 5853 5852 5851 5851 5850 5849 5848 5848 5847 5846 5846 5845 5844 5843 5843 5842 5841 5840 5839 5838 5837 5836 5835 5834 5833 5832 5831 5830 5829 5828 5827 5826 5825 5824 5823 5822 5821 5820
5874 5875 5875 5875 5874 5874 5873 5873 5873 5872 5872 5871 5871 5870 5871 5871 5871 5871 5871 5870 5870 5870 5870 5870 5869 5868 5868 5867 5867 5866 5865 5864 5863 5862 5861 5861 5861 5860 5859 5858 5858 5857 5856 5855 5855 5854 5853 5852 5852 5851 5850 5849 5849 5848 5847 5846 5846 5845 5844 5844 5843 5842 5841 5840 5839 5838 5837 5836 5835 5834 5833 5832 5831 5830 5829 5828 5827 5826 5825 5824 5823 5821 5820 5819 5818
5873 5874 5874 5874 5874 5873 5872 5871 5871 5871 5870 5870 5869 5869 5869 5870 5870 5870 5869 5869 5869 5869 5869 5869 5868 5867 5867 5867 5866 5865 5864 5863 5862 5861 5861 5861 5860 5860 5859 5858 5857 5857 5856 5855 5854 5854 5853 5852 5852 5851 5850 5849 5848 5847 5846 5846 5845 5844 5843 5843 5842 5842 5841 5840 5838 5837 5836 5835 5834 5834 5832 5831 5830 5829 5828 5827 5826 5825 5823 5822 5821 5820 5819 5818 5817
5871 5872 5873 5873 5873 5872 5871 5871 5871 5870 5869 5869 5868 5868 5868 5868 5868 5868 5869 5869 5869 5869 5868 5868 5867 5867 5866 5866 5865 5864 5863 5863 5862 5861 5860 5860 5859 5859 5859 5858 5857 5856 5855 5855 5854 5854 5853 5852 5851 5850 5849 5849 5848 5847 5846 5845 5844 5844 5843 5842 5842 5841 5840 5839 5838 5836 5835 5834 5833 5833 5831 5830 5829 5828 5827 5825 5824 5823 5822 5821 5820 5819 5818 5816 5815
5870 5871 5872 5871 5871 5871 5871 5871 5870 5869 5868 5868 5868 5868 5868 5868 5868 5868 5868 5868 5868 5868 5867 5867 5866 5866 5865 5865 5864 5863 5862 5862 5861 5860 5859 5859 5858 5858 5858 5857 5857 5856 5855 5855 5854 5853 5853 5852 5851 5850 5849 5849 5848 5847 5846 5845 5844 5843 5842 5842 5841 5840 5840 5839 5838 5836 5835 5834 5833 5832 5831 5830 5828 5827 5825 5824 5823 5822 5820 5819 5818 5817 5816 5815 5814
5869 5870 5870 5869 5869 5869 5870 5870 5869 5868 5868 5868 5867 5867 5867 5867 5867 5867 5868 5868 5867 5867 5867 5867 5866 5865 5865 5864 5863 5862 5861 5861 5860 5859 5859 5858 5857 5857 5857 5856 5856 5856 5855 5855 5854 5853 5852 5852 5851 5850 5850 5849 5848 5847 5846 5845 5844 5843 5842 5841 5840 5839 5838 5838 5837 5836 5835 5833 5832 5831 5830 5829 5827 5826 5824 5823 5821 5820 5819 5818 5816 5816 5815 5813 5812
5865 5865 5865 5865 5866 5867 5868 5868 5868 5867 5867 5867 5866 5866 5865 5865 5866 5866 5867 5867 5867 5867 5867 5866 5866 5865 5864 5863 5862 5862 5861 5860 5860 5859 5858 5857 5856 5856 5856 5855 5855 5855 5855 5854 5854 5853 5853 5852 5851 5850 5849 5849 5847 5846 5845 5844 5843 5842 5841 5840 5839 5839 5838 5837 5836 5835 5833 5833 5831 5830 5829 5828 5826 5825 5823 5822 5820 5819 5817 5816 5815 5814 5813 5812 5811
5860 5859 5860 5861 5862 5865 5866 5866 5866 5866 5865 5865 5864 5864 5864 5864 5864 5865 5865 5865 5865 5865 5865 5865 5865 5864 5863 5862 5862 5861 5861 5860 5859 5858 5857 5857 5856 5855 5855 5854 5854 5854 5854 5854 5853 5853 5853 5852 5852 5850 5849 5848 5847 5846 5845 5844 5843 5842 5841 5840 5839 5838 5837 5836 5835 5833 5832 5831 5830 5829 5828 5826 5825 5823 5822 5820 5819 5818 5816 5815 5813 5812 5811 5810 5809
5856 5857 5859 5860 5861 5862 5864 5864 5864 5864 5864 5863 5863 5862 5862 5862 5863 5863 5863 5863 5864 5864 5864 5863 5863 5862 5862 5861 5861 5861 5860 5859 5858 5857 5857 5856 5855 5855 5854 5854 5853 5853 5853 5853 5853 5853 5853 5853 5852 5851 5849 5848 5847 5846 5845 5844 5843 5842 5840 5839 5838 5837 5836 5835 5834 5833 5831 5830 5828 5827 5827 5825 5824 5822 5821 5819 5818 5816 5815 5813 5812 5811 5809 5808 5807
5857 5858 5860 5861 5860 5861 5862 5863 5863 5862 5862 5862 5861 5861 5861 5861 5861 5861 5862 5862 5862 5862 5862 5861 5861 5860 5860 5860 5860 5860 5860 5859 5858 5857 5856 5855 5855 5854 5853 5853 5853 5852 5852 5852 5852 5852 5852 5852 5852 5851 5850 5848 5847 5846 5845 5844 5842 5841 5840 5838 5837 5836 5834 5833 5832 5831 5830 5829 5828 5827 5826 5824 5823 5821 5820 5818 5816 5815 5813 5812 5811 5809 5808 5806 5805
5857 5859 5861 5861 5860 5860 5861 5861 5861 5860 5860 5860 5859 5859 5860 5860 5860 5860 5860 5861 5860 5860 5860 5860 5859 5859 5859 5859 5859 5860 5860 5859 5858 5856 5855 5855 5854 5854 5853 5852 5852 5852 5852 5851 5851 5851 5851 5851 5851 5850 5849 5848 5847 5846 5844 5843 5842 5840 5839 5838 5837 5835 5834 5833 5832 5831 5829 5828 5827 5826 5825 5823 5822 5820 5818 5817 5815 5814 5812 5810 5809 5808 5806 5805 5803
5856 5858 5859 5859 5859 5859 5859 5859 5859 5859 5858 5858 5858 5858 5858 5858 5858 5858 5859 5858 5858 5858 5858 5858 5858 5858 5858 5858 5858 5858 5858 5858 5858 5857 5855 5854 5854 5853 5852 5851 5851 5851 5850 5850 5850 5850 5850 5850 5850 5848 5847 5846 5845 5844 5843 5842 5841 5840 5839 5838 5837 5835 5834 5832 5831 5830 5829 5827 5826 5824 5823 5822 5820 5819 5817 5816 5814 5813 5811 5809 5808 5806 5804 5803 5802
5854 5856 5857 5857 5857 5857 5857 5857 5857 5857 5856 5856 5856 5855 5855 5856 5856 5856 5857 5856 5856 5857 5857 5857 5857 5856 5856 5856 5856 5856 5856 5856 5857 5857 5855 5854 5853 5852 5851 5851 5850 5850 5849 5849 5848 5848 5848 5848 5847 5846 5845 5844 5843 5842 5841 5840 5839 5838 5837 5836 5835 5833 5832 5830 5829 5828 5826 5825 5824 5823 5821 5820 5819 5817 5816 5815 5813 5811 5809 5808 5806 5805 5803 5801 5800
5852 5853 5854 5855 5855 5855 5855 5855 5854 5854 5855 5854 5853 5853 5853 5853 5854 5855 5854 5855 5855 5855 5855 5855 5854 5854 5854 5854 5855 5855 5855 5855 5855 5856 5856 5853 5852 5852 5851 5850 5849 5849 5848 5847 5847 5847 5846 5846 5845 5845 5844 5843 5842 5841 5839 5838 5837 5836 5835 5834 5833 5831 5830 5828 5827 5826 5825 5823 5822 5821 5819 5818 5817 5816 5814 5813 5811 5810 5808 5807 5805 5804 5802 5800 5798
5851 5850 5851 5851 5852 5852 5852 5852 5852 5852 5853 5852 5851 5851 5851 5851 5852 5852 5852 5853 5853 5854 5853 5853 5852 5851 5851 5852 5852 5853 5854 5854 5853 5854 5855 5853 5851 5850 5850 5849 5848 5848 5847 5847 5846 5846 5845 5845 5845 5844 5843 5842 5841 5839 5838 5837 5836 5835 5834 5833 5831 5830 5828 5827 5825 5824 5823 5821 5820 5819 5817 5816 5815 5814 5812 5811 5809 5808 5806 5805 5803 5802 5800 5799 5797
5849 5848 5848 5848 5848 5849 5849 5850 5850 5850 5850 5850 5849 5849 5849 5849 5850 5850 5850 5850 5851 5852 5851 5850 5850 5849 5849 5849 5850 5851 5852 5853 5851 5852 5853 5852 5850 5848 5848 5848 5847 5847 5846 5845 5845 5845 5844 5844 5843 5842 5841 5840 5839 5838 5837 5836 5835 5834 5832 5831 5830 5828 5826 5824 5823 5822 5821 5819 5818 5817 5815 5814 5813 5811 5810 5809 5807 5806 5804 5803 5801 5800 5798 5797 5796
5845 5844 5844 5845 5845 5846 5847 5847 5847 5847 5847 5846 5846 5846 5847 5847 5847 5847 5848 5848 5849 5849 5849 5848 5848 5847 5847 5848 5848 5848 5849 5851 5850 5850 5851 5851 5849 5847 5846 5846 5846 5845 5845 5844 5843 5843 5842 5842 5841 5840 5840 5839 5838 5837 5835 5834 5833 5832 5830 5829 5827 5826 5824 5822 5820 5819 5818 5817 5816 5814 5813 5811 5810 5809 5807 5806 5805 5803 5802 5801 5799 5798 5797 5795 5794
5842 5841 5841 5842 5843 5844 5845 5845 5844 5844 5843 5843 5843 5843 5844 5844 5844 5845 5845 5846 5846 5847 5847 5847 5847 5846 5846 5846 5846 5846 5847 5849 5848 5848 5849 5849 5847 5845 5845 5844 5844 5843 5842 5842 5841 5841 5840 5840 5839 5838 5838 5836 5835 5834 5833 5832 5831 5829 5828 5826 5825 5823 5821 5819 5818 5817 5816 5815 5813 5812 5811 5809 5808 5806 5805 5803 5802 5801 5800 5798 5797 5796 5795 5794 5792
5840 5840 5840 5841 5842 5842 5842 5842 5841 5841 5840 5840 5840 5840 5841 5841 5841 5842 5843 5843 5844 5844 5844 5845 5845 5845 5845 5845 5844 5845 5846 5847 5846 5846 5847 5846 5844 5843 5843 5842 5842 5841 5841 5840 5839 5839 5838 5838 5837 5836 5835 5834 5833 5832 5830 5829 5828 5827 5825 5824 5822 5820 5819 5817 5816 5814 5813 5812 5811 5809 5808 5807 5805 5804 5802 5801 5799 5798 5796 5795 5794 5793 5792 5791 5790
5838 5838 5839 5840 5840 5840 5840 5839 5838 5838 5837 5837 5837 5837 5838 5838 5839 5840 5840 5841 5841 5841 5842 5842 5843 5843 5844 5844 5843 5844 5845 5845 5844 5844 5845 5844 5842 5841 5841 5841 5840 5840 5839 5838 5837 5837 5836 5836 5835 5834 5833 5832 5831 5829 5828 5827 5825 5824 5823 5822 5820 5818 5816 5814 5813 5812 5810 5809 5808 5807 5805 5804 5802 5801 5800 5798 5797 5795 5793 5792 5791 5790 5789 5788 5788
5836 5836 5837 5837 5838 5838 5837 5837 5836 5836 5835 5835 5835 5835 5835 5836 5837 5838 5838 5838 5838 5839 5839 5839 5840 5841 5841 5842 5842 5843 5843 5843 5843 5844 5844 5843 5841 5840 5840 5839 5839 5838 5837 5836 5835 5835 5834 5833 5832 5831 5830 5829 5828 5827 5825 5824 5823 5822 5820 5819 5817 5816 5814 5812 5811 5809 5808 5806 5805 5803 5802 5801 5799 5798 5797 5795 5794 5792 5791 5789 5788 5787 5786 5785 5785
5833 5834 5835 5835 5835 5836 5835 5835 5834 5833 5833 5832 5832 5832 5832 5833 5834 5835 5836 5836 5836 5836 5836 5836 5837 5838 5839 5840 5841 5842 5842 5841 5842 5843 5842 5841 5840 5839 5838 5838 5837 5836 5835 5834 5833 5832 5831 5830 5830 5829 5828 5827 5825 5824 5823 5821 5820 5819 5818 5816 5815 5813 5811 5809 5808 5807 5805 5804 5802 5800 5799 5797 5796 5795 5793 5792 5790 5789 5787 5786 5784 5783 5783 5782 5781
5830 5831 5832 5833 5833 5833 5833 5833 5832 5831 5831 5830 5829 5829 5830 5831 5832 5833 5834 5834 5834 5833 5834 5834 5834 5835 5837 5838 5839 5840 5840 5840 5840 5841 5840 5839 5838 5837 5837 5836 5835 5834 5832 5831 5830 5829 5829 5828 5827 5827 5826 5825 5823 5822 5821 5819 5818 5816 5815 5814 5813 5811 5809 5807 5805 5804 5802 5800 5799 5797 5795 5794 5792 5791 5790 5789 5787 5785 5783 5782 5781 5780 5780 5779 5778
5828 5829 5829 5830 5831 5831 5831 5830 5830 5829 5828 5827 5827 5827 5828 5829 5830 5831 5832 5832 5832 5832 5832 5832 5833 5834 5835 5837 5838 5838 5838 5838 5838 5838 5837 5837 5836 5836 5835 5834 5833 5831 5830 5829 5828 5827 5826 5826 5825 5824 5824 5823 5821 5820 5819 5817 5816 5814 5813 5811 5810 5808 5806 5804 5802 5801 5799 5797 5796 5794 5792 5790 5789 5788 5787 5785 5783 5781 5779 5778 5777 5777 5776 5776 5775
5825 5826 5827 5828 5828 5829 5829 5828 5828 5827 5826 5825 5825 5826 5826 5827 5828 5829 5830 5830 5831 5831 5831 5832 5832 5833 5834 5835 5836 5836 5836 5836 5836 5836 5835 5835 5834 5834 5833 5832 5830 5828 5828 5827 5826 5825 5824 5824 5823 5822 5821 5820 5819 5818 5816 5815 5814 5812 5811 5809 5807 5805 5803 5801 5798 5797 5796 5794 5793 5791 5789 5787 5786 5785 5783 5782 5780 5778 5776 5774 5773 5773 5772 5772 5771
5823 5824 5825 5825 5826 5826 5826 5826 5826 5825 5824 5824 5824 5825 5825 5826 5827 5827 5828 5829 5830 5830 5831 5831 5832 5832 5833 5834 5834 5834 5834 5835 5835 5834 5834 5833 5832 5831 5830 5829 5828 5827 5826 5825 5824 5823 5822 5822 5821 5820 5819 5818 5817 5815 5814 5813 5811 5809 5808 5806 5804 5802 5800 5798 5796 5793 5792 5790 5789 5787 5785 5784 5782 5781 5779 5778 5776 5774 5772 5771 5769 5769 5768 5767 5767
5821 5821 5822 5823 5824 5824 5824 5824 5823 5823 5823 5823 5824 5824 5825 5825 5825 5826 5826 5827 5828 5829 5830 5830 5831 5831 5832 5832 5832 5833 5833 5834 5833 5833 5832 5831 5830 5829 5828 5827 5826 5825 5824 5823 5822 5821 5821 5820 5819 5817 5816 5815 5814 5812 5811 5810 5808 5806 5805 5803 5801 5799 5797 5795 5793 5791 5788 5786 5784 5783 5781 5780 5778 5777 5775 5774 5772 5770 5768 5766 5765 5765 5764 5763 5763
5818 5819 5819 5819 5820 5821 5821 5821 5821 5821 5821 5822 5823 5823 5824 5824 5824 5825 5825 5826 5826 5828 5829 5829 5830 5831 5831 5831 5831 5831 5832 5832 5832 5831 5830 5829 5828 5827 5826 5825 5824 5823 5822 5821 5820 5819 5818 5817 5816 5815 5813 5812 5810 5809 5807 5806 5804 5802 5800 5799 5797 5795 5793 5791 5790 5788 5786 5783 5781 5778 5777 5775 5773 5772 5771 5769 5767 5766 5764 5762 5761 5760 5759 5758 5759
5816 5816 5816 5816 5817 5818 5819 5819 5819 5819 5820 5821 5821 5822 5823 5823 5823 5824 5824 5825 5826 5827 5828 5829 5829 5830 5830 5829 5830 5830 5830 5831 5830 5829 5828 5827 5826 5825 5825 5824 5823 5821 5820 5819 5818 5817 5816 5815 5813 5811 5810 5808 5806 5805 5803 5801 5800 5798 5796 5794 5792 5790 5789 5787 5786 5784 5783 5781 5779 5776 5773 5771 5769 5767 5766 5764 5763 5761 5759 5758 5756 5755 5753 5753 5754
5814 5814 5814 5814 5815 5816 5817 5818 5818 5818 5819 5819 5820 5821 5822 5822 5822 5823 5824 5824 5825 5826 5827 5828 5828 5828 5828 5828 5828 5829 5829 5828 5828 5827 5826 5825 5824 5823 5822 5822 5820 5819 5818 5817 5816 5815 5813 5811 5810 5808 5806 5804 5802 5800 5798 5797 5795 5793 5791 5789 5788 5786 5784 5783 5781 5779 5778 5777 5775 5774 5771 5768 5766 5763 5761 5759 5757 5756 5754 5752 5751 5749 5748 5748 5748
5813 5812 5812 5812 5813 5815 5816 5816 5816 5817 5817 5818 5819 5820 5820 5820 5821 5822 5823 5823 5824 5825 5826 5826 5826 5826 5826 5826 5827 5827 5827 5826 5826 5825 5824 5823 5822 5821 5820 5819 5818 5817 5815 5814 5813 5811 5810 5808 5806 5804 5802 5800 5798 5796 5794 5792 5790 5788 5786 5784 5782 5781 5779 5777 5775 5773 5772 5770 5769 5768 5766 5764 5762 5759 5756 5753 5751 5750 5749 5747 5745 5744 5742 5741 5741
5811 5811 5811 5811 5812 5813 5814 5815 5815 5816 5817 5817 5818 5818 5819 5819 5820 5820 5821 5822 5823 5824 5824 5824 5823 5823 5824 5825 5825 5825 5825 5825 5824 5823 5822 5821 5820 5819 5818 5817 5815 5814 5812 5811 5809 5808 5806 5804 5802 5800 5798 5796 5794 5792 5790 5788 5786 5784 5782 5780 5778 5776 5774 5772 5770 5768 5766 5764 5762 5761 5760 5759 5757 5754 5751 5748 5745 5743 5742 5740 5739 5738 5737 5736 5734
5809 5809 5810 5811 5811 5812 5813 5814 5815 5815 5815 5816 5816 5817 5817 5818 5818 5819 5820 5821 5821 5821 5821 5821 5821 5822 5822 5823 5823 5823 5823 5822 5821 5820 5819 5818 5817 5816 5815 5814 5812 5811 5809 5808 5806 5804 5802 5800 5798 5796 5794 5792 5790 5788 5786 5784 5782 5779 5778 5776 5774 5772 5770 5768 5766 5764 5762 5761 5759 5757 5755 5753 5751 5749 5747 5745 5741 5738 5736 5734 5732 5732 5730 5729 5728